Tracking 17142 objects as of 28-May-2015
HD Live streaming from Space Station

METEOR 1-11 DEB

Track METEOR 1-11 DEB now!
10-day predictions
METEOR 1-11 DEB is classified as:


NORAD ID: 36305
Int'l Code: 1972-022D
Perigee: 774.7 km
Apogee: 800.0 km
Inclination: 81.2 °
Period: 100.5 minutes
Semi major axis: 7158 km
RCS: 0.003 m2 (small)
Launch date: March 30, 1972
Source: Commonwealth of Independent States (former USSR) (CIS)

Note: This is SATELLITE DEBRIS
Your satellite tracking list
Your tracking list is empty





NASA's NSSDC Master Catalog

Two Line Element Set (TLE):
1 36305U 72022D   15145.45917742  .00008881  00000-0  32040-2 0  9991
2 36305 081.2080 204.6303 0017646 059.0864 301.2139 14.33459090353910

Source of the keplerian elements: AFSPC

N2YO: 341